Location: Newark
(11.0000°N, 122.6717°E)
Time: 19:03:44
(UTC+00:00)

STARLINK 1065 - Pass Details

Date: 15 December 2019
Orbit: 548 x 551 km, 53.0° (Epoch: 17 January)

Event Time Altitude Azimuth Distance (km) Brightness Sun altitude
Rises 12:36:05 0° 272° (W) 2,704 7.8 -43.6°
Enters shadow 12:36:28 - 275° (W) 2,613 7.7 -43.7°
Exits shadow 13:10:07 -50° 55° (NE) 10,566 10.3 -51.3°
Maximum altitude 21:15:31 36° 54° (NE) 934 5.1 -10.9°
